CZ-6A DEB, 54291

Orbit data source: Space-Track

CZ-6A DEB, 54291 is space debris in SSO originally from a launch on Fri, 11 Nov 2022 UTC launched from the Taiyaun Space Center, China (TSC). Debris objects in space refer to the collection of defunct objects orbiting the Earth. Examples of debris include non-operational satellites, rocket bodies, and fragments generated from explosions, collisions, or faulty payload assembly.

Loading next visibility...
Identifier
54291, 2022-151AJ
Orbit
SSO
Country
Flag of CNCN / PRC
Related business
Manufacturer
SAST
Mission
Spacecraft
Bus & Motor
Unknown
Mass
Unknown
Launch date (UTC)
2022-11-11 (4 years ago)
Launch vehicle
Unknown
Launch site
Taiyaun Space Center, China (TSC)
Object type
Payload
Rocket body
Debris
Shape & HBR
Unknown shape, 0.1 m
Radar Cross Section
Medium (>0.1 m² and <1 m²)

Expand to show TLE details & history
Last TLE update: 14 hours ago

TLE from 14 hours ago
0 CZ-6A DEB
1 54291U 22151AJ  26208.40757400  .00000419  00000-0  27531-3 0  9992
2 54291  98.8655 198.8884 0080010 203.3337 156.4191 14.05775817189549
Epoch: 2026-07-27T09:46Z
TLE epoch observation values (Epoch: 2026-07-27T09:46:54.393Z)
Latitude
-0.0001°
Longitude
107.07019°
Altitude
930.015 km
Speed
7.36 km/s
True Right ascension
13h 15m 33s
True Declination
0° 00' 00"
Sunlit
Object was in daylight at epoch
Visualization orbit readout
Latitude
Unknown
Longitude
Unknown
Altitude
Unknown
Speed
Unknown
Apparent Right ascension
Unknown
Apparent Declination
Unknown
Sunlit
N/A
Visualization observer readout
Local Sidereal Time
13:25:01
Azimuth
Unknown
Elevation
Unknown
Doppler factor
Unknown
Orbital elements
Apogee altitude
929.049 km
Perigee altitude
813.047 km
Semi-major axis
7,249.185 km
Eccentricity
0.008
Inclination
98.8655°
RAAN
198.8884°
Arg. of periapsis
203.3337°
True anomaly
156.78254°
Mean anomaly
156.4191°
Eccentric anomaly
156.60115°
Mean motion
3.51649 °/min
Orbital period
102.37 mins
BSTAR
0.00027531
Loading maneuver chart data...
Computing Atmospheric mass density...
Loading historical data...
Loading historical data...
Loading historical data...
Loading historical data...
Loading historical data...
Loading historical data...
Loading historical data...

Documentation

Showing up to 5 results
|